DW1512 Weather Reports


Display with metric or nautical units.
time (UTC)temp
F
wind
direction
speed
MPH
gust
MPH
rain 1hr
in
rain 24hr
in
rain mn
in
humidity
%
barometer
mb
20181121202211 48 79 7.0 15.0 0.00 0.25 0.25 98 1026.1
20181121201711 48 105 5.0 15.0 0.00 0.25 0.25 98 1026.0
20181121201214 48 68 8.0 15.0 0.00 0.25 0.25 98 1025.9
20181121200715 49 0 6.0 14.0 0.00 0.25 0.25 98 1025.7
20181121195210 49 65 5.0 14.0 0.00 0.25 0.25 98 1025.6
20181121194710 49 45 6.0 15.0 0.00 0.25 0.25 98 1025.5
20181121194210 49 225 7.0 15.0 0.00 0.25 0.25 98 1025.5
20181121193711 49 24 8.0 13.0 0.00 0.25 0.25 98 1025.4
20181121193210 49 45 7.0 17.0 0.00 0.25 0.25 98 1025.2
20181121192711 49 90 7.0 17.0 0.00 0.25 0.25 98 1025.2
20181121192211 49 90 9.0 17.0 0.00 0.25 0.25 98 1025.1
20181121191711 49 45 6.0 17.0 0.00 0.25 0.25 98 1024.8
20181121191210 50 45 9.0 17.0 0.00 0.25 0.25 98 1024.8
20181121190710 50 28 9.0 15.0 0.00 0.25 0.25 98 1024.6
20181121190210 50 0 7.0 17.0 0.00 0.25 0.25 98 1024.5
20181121185711 50 24 9.0 21.0 0.00 0.26 0.25 98 1024.4
20181121185211 50 77 12.0 21.0 0.00 0.26 0.25 98 1024.4
20181121184710 50 45 7.0 20.0 0.00 0.26 0.25 98 1024.2
20181121184210 50 29 9.0 20.0 0.00 0.26 0.25 98 1024.2
20181121183710 50 72 9.0 20.0 0.00 0.26 0.25 98 1024.2
20181121183210 50 45 10.0 20.0 0.00 0.26 0.25 98 1024.2
20181121182710 50 45 7.0 20.0 0.00 0.26 0.25 98 1024.4
20181121182211 50 33 8.0 15.0 0.00 0.26 0.25 98 1024.4
20181121181710 50 59 7.0 15.0 0.00 0.26 0.25 98 1024.4
20181121181211 51 45 8.0 15.0 0.00 0.26 0.25 98 1024.1
20181121180710 51 45 9.0 14.0 0.00 0.26 0.25 98 1024.1
20181121180211 51 90 9.0 14.0 0.00 0.26 0.25 98 1024.0
20181121175711 51 63 9.0 16.0 0.00 0.26 0.25 98 1023.8
20181121175211 51 60 7.0 18.0 0.00 0.26 0.25 98 1023.6
20181121174712 51 27 7.0 18.0 0.00 0.26 0.25 98 1023.3
20181121174210 51 76 9.0 17.0 0.00 0.26 0.25 98 1023.3
20181121173711 51 23 7.0 13.0 0.00 0.26 0.25 98 1023.0
20181121173211 52 25 6.0 17.0 0.00 0.26 0.25 98 1022.9
20181121172710 52 77 7.0 18.0 0.00 0.26 0.25 98 1022.8
20181121172210 52 45 9.0 18.0 0.00 0.26 0.25 98 1022.6
20181121171710 52 45 9.0 17.0 0.00 0.26 0.25 98 1022.4
20181121171211 52 29 9.0 17.0 0.00 0.26 0.25 98 1022.1
20181121170710 52 82 7.0 17.0 0.00 0.26 0.25 98 1021.8
20181121170211 52 68 7.0 18.0 0.00 0.26 0.25 98 1021.5
20181121165711 52 59 9.0 18.0 0.00 0.26 0.25 98 1021.2
20181121165211 52 73 8.0 16.0 0.00 0.26 0.25 98 1020.8
20181121164711 52 45 7.0 17.0 0.00 0.26 0.25 98 1020.4
20181121164211 52 59 7.0 17.0 0.00 0.26 0.25 98 1020.0
20181121163710 52 45 9.0 17.0 0.00 0.26 0.25 98 1019.4
20181121163211 52 78 7.0 16.0 0.00 0.26 0.25 98 1018.7
20181121162710 52 45 7.0 16.0 0.00 0.26 0.25 98 1018.4
20181121162211 52 53 6.0 15.0 0.00 0.26 0.25 98 1018.0
20181121161711 52 73 7.0 15.0 0.00 0.26 0.25 98 1017.5
20181121161211 52 3 7.0 15.0 0.00 0.26 0.25 98 1017.2
20181121160711 52 45 6.0 14.0 0.00 0.26 0.25 98 1017.1
20181121160210 52 71 7.0 15.0 0.00 0.26 0.25 98 1017.2
20181121155711 52 51 9.0 16.0 0.00 0.26 0.25 98 1017.8
20181121155211 53 70 9.0 16.0 0.00 0.26 0.25 98 1018.0
20181121154710 53 90 8.0 15.0 0.00 0.26 0.25 98 1018.3
20181121154211 53 57 9.0 15.0 0.00 0.26 0.25 98 1018.5
20181121153711 53 114 6.0 14.0 0.00 0.26 0.25 98 1018.9
20181121153211 53 75 6.0 12.0 0.00 0.26 0.25 98 1019.5
20181121152710 53 91 7.0 12.0 0.00 0.26 0.25 98 1020.2
20181121152211 53 90 7.0 13.0 0.00 0.26 0.25 98 1020.4
20181121151711 53 69 7.0 13.0 0.00 0.26 0.25 98 1020.4
20181121151212 53 45 6.0 12.0 0.00 0.26 0.25 98 1020.5
20181121150711 54 70 6.0 10.0 0.00 0.26 0.25 97 1020.7
20181121150211 54 45 6.0 13.0 0.00 0.26 0.25 97 1020.7
20181121145710 54 72 6.0 13.0 0.00 0.26 0.25 97 1020.6
20181121145210 54 0 7.0 13.0 0.00 0.26 0.25 97 1020.7
20181121144711 54 61 5.0 10.0 0.00 0.26 0.25 97 1020.7
20181121144210 54 45 6.0 10.0 0.00 0.26 0.25 97 1020.8
20181121143710 54 73 7.0 9.0 0.00 0.26 0.25 97 1020.9
20181121143210 54 45 4.0 9.0 0.00 0.26 0.25 97 1021.1
20181121142710 54 115 5.0 9.0 0.00 0.26 0.25 97 1021.0
20181121142210 54 45 5.0 10.0 0.00 0.26 0.25 97 1021.1
20181121141710 55 18 6.0 10.0 0.00 0.26 0.25 97 1021.1
20181121141210 55 15 5.0 10.0 0.00 0.26 0.25 97 1021.2
20181121140711 55 58 5.0 10.0 0.00 0.26 0.25 97 1021.4
20181121140211 55 45 5.0 8.0 0.00 0.26 0.25 97 1021.7
20181121135710 55 70 5.0 8.0 0.00 0.26 0.25 97 1022.2
20181121135211 55 61 3.0 12.0 0.00 0.26 0.25 97 1022.6
20181121134711 55 70 3.0 12.0 0.00 0.26 0.25 97 1022.6
20181121134211 55 95 5.0 13.0 0.00 0.26 0.25 97 1022.5
20181121133710 55 75 6.0 13.0 0.00 0.26 0.25 97 1022.4
20181121133210 55 28 7.0 15.0 0.00 0.26 0.25 97 1022.2
20181121132710 55 56 8.0 15.0 0.00 0.26 0.25 97 1022.1
20181121132210 55 45 7.0 15.0 0.00 0.26 0.25 97 1022.1
20181121131711 55 67 6.0 10.0 0.00 0.26 0.25 97 1021.9
20181121131211 55 74 5.0 9.0 0.00 0.26 0.25 97 1021.8
20181121130728 55 81 3.0 10.0 0.00 0.26 0.25 97 1021.7
20181121130211 55 68 3.0 10.0 0.00 0.26 0.25 97 1021.5
20181121125712 55 66 5.0 12.0 0.00 0.26 0.25 97 1021.3
20181121125210 55 68 6.0 13.0 0.00 0.26 0.25 97 1021.2
20181121124711 55 74 7.0 13.0 0.00 0.26 0.25 97 1021.1
20181121124212 56 77 5.0 13.0 0.00 0.26 0.25 97 1020.9
20181121123710 56 19 6.0 13.0 0.01 0.26 0.25 97 1020.8
20181121123212 56 45 5.0 13.0 0.01 0.26 0.25 97 1020.5
20181121122711 56 45 6.0 12.0 0.01 0.26 0.25 97 1020.3
20181121122211 56 70 7.0 12.0 0.01 0.26 0.25 97 1020.2
20181121121711 56 81 7.0 12.0 0.01 0.26 0.25 97 1020.1
20181121092206 55 45 6.0 10.0 0.00 0.17 0.15 97 1024.5
20181121091707 55 69 6.0 10.0 0.00 0.17 0.15 97 1024.5
20181121091206 55 45 4.0 8.0 0.00 0.17 0.15 97 1024.6
20181121090706 55 58 3.0 8.0 0.00 0.17 0.15 97 1024.7
20181121090207 55 27 4.0 8.0 0.00 0.17 0.15 97 1024.8
20181121085706 54 54 2.0 8.0 0.00 0.17 0.15 97 1024.9
20181121085206 53 45 3.0 6.0 0.00 0.17 0.15 97 1025.1
20181121084706 53 315 0.0 1.0 0.00 0.17 0.15 98 1025.1
20181121084206 52 0 0.0 2.0 0.00 0.17 0.15 98 1025.1
20181121083706 51 315 0.0 2.0 0.00 0.17 0.15 97 1025.2
20181121083206 51 270 0.0 2.0 0.00 0.17 0.15 97 1025.4
20181121082706 51 225 0.0 0.0 0.00 0.17 0.15 97 1025.4
20181121082206 51 225 0.0 1.0 0.00 0.17 0.15 97 1025.2
20181121081707 51 225 0.0 1.0 0.00 0.17 0.15 97 1025.2
20181121081206 51 225 0.0 2.0 0.00 0.17 0.15 97 1025.0
20181121080706 51 270 0.0 3.0 0.00 0.17 0.15 97 1024.8
20181121080206 51 245 1.0 3.0 0.00 0.17 0.15 97 1024.8
20181121075706 51 270 1.0 3.0 0.00 0.17 0.15 97 1024.5
20181121075206 51 259 1.0 3.0 0.00 0.17 0.15 97 1024.3
20181121074706 51 225 1.0 2.0 0.00 0.17 0.15 97 1024.0
20181121074206 50 225 0.0 5.0 0.00 0.17 0.15 97 1023.3
20181121073706 50 286 1.0 5.0 0.00 0.17 0.15 97 1022.7
20181121072206 50 225 1.0 2.0 0.00 0.17 0.15 97 1021.9
20181121071706 50 225 0.0 3.0 0.00 0.17 0.15 97 1022.0
20181121071206 49 225 0.0 3.0 0.00 0.17 0.15 97 1022.2
20181121070707 49 258 2.0 3.0 0.00 0.17 0.15 97 1022.2
20181121070206 49 254 2.0 3.0 0.00 0.17 0.15 97 1021.8
20181121065706 49 225 0.0 2.0 0.00 0.17 0.15 97 1021.9
20181121065206 49 251 0.0 1.0 0.00 0.17 0.15 97 1022.0
20181121055206 48 225 0.0 0.0 0.01 0.17 0.15 97 1024.7
20181121054706 47 225 0.0 0.0 0.01 0.17 0.15 97 1024.9
20181121054206 47 225 0.0 1.0 0.00 0.15 0.14 97 1025.3
20181121053706 47 225 0.0 2.0 0.00 0.15 0.14 97 1025.9
20181121053206 47 225 0.0 2.0 0.01 0.15 0.14 97 1026.5
20181121052706 47 225 1.0 2.0 0.01 0.15 0.14 97 1027.3
20181121052206 47 270 0.0 2.0 0.01 0.15 0.14 97 1028.2
20181121051706 47 244 1.0 2.0 0.02 0.15 0.14 97 1029.2
20181121051207 47 289 0.0 2.0 0.04 0.15 0.14 97 1029.7
20181121050706 47 195 1.0 2.0 0.04 0.15 0.14 97 1030.0
20181121050207 47 135 1.0 2.0 0.05 0.15 0.14 97 1030.1
20181121045707 47 135 0.0 0.0 0.06 0.15 0.14 97 1030.0
20181121045206 47 135 0.0 0.0 0.08 0.15 0.14 97 1030.0
20181121044706 47 135 0.0 0.0 0.08 0.15 0.14 97 1030.0
20181121044206 47 135 0.0 0.0 0.09 0.15 0.14 97 1029.9
20181121043706 47 135 0.0 0.0 0.11 0.15 0.14 97 1029.9
20181121043207 47 135 0.0 0.0 0.09 0.14 0.13 97 1029.8
20181121042706 47 135 0.0 0.0 0.09 0.14 0.13 97 1029.9
20181121042206 47 135 0.0 0.0 0.11 0.14 0.13 97 1029.8
20181121041707 47 135 0.0 0.0 0.09 0.13 0.12 97 1029.8
20181121041206 47 135 0.0 0.0 0.08 0.12 0.11 97 1029.7
20181121040706 47 135 0.0 2.0 0.08 0.12 0.11 97 1029.7
20181121040206 47 135 0.0 2.0 0.07 0.11 0.09 97 1029.6
20181121035707 47 135 1.0 2.0 0.06 0.09 0.08 97 1029.7
20181121035206 47 135 0.0 0.0 0.04 0.07 0.06 97 1029.8
20181121034706 47 135 0.0 0.0 0.04 0.07 0.06 97 1029.8
20181121034207 47 135 0.0 0.0 0.02 0.06 0.05 97 1030.0
20181121033706 47 135 0.0 0.0 0.01 0.05 0.04 97 1029.9
20181121033205 47 135 0.0 0.0 0.01 0.05 0.04 97 1030.0
20181121032707 47 135 0.0 1.0 0.01 0.05 0.04 97 1030.1
20181121032207 47 135 0.0 1.0 0.00 0.04 0.02 97 1030.0
20181121031707 47 135 1.0 1.0 0.01 0.04 0.02 97 1030.2
20181121031207 47 135 0.0 0.0 0.01 0.04 0.02 97 1030.3
20181121030706 47 135 0.0 1.0 0.01 0.04 0.02 97 1030.3
20181121030206 47 135 0.0 1.0 0.01 0.04 0.02 97 1030.4
20181121025706 47 135 0.0 1.0 0.01 0.04 0.02 97 1030.3
20181121025207 47 135 0.0 1.0 0.01 0.04 0.02 97 1030.3
20181121024706 47 135 0.0 1.0 0.02 0.04 0.02 97 1030.4
20181121024207 47 84 0.0 1.0 0.02 0.04 0.02 97 1030.4
20181121023706 47 45 0.0 0.0 0.02 0.04 0.02 97 1030.4
20181121023207 47 45 0.0 1.0 0.02 0.04 0.02 97 1030.4
20181121022707 47 45 0.0 1.0 0.02 0.04 0.02 97 1030.5
20181121022207 46 45 0.0 1.0 0.02 0.04 0.02 97 1030.5
20181121021706 46 270 0.0 0.0 0.01 0.02 0.01 97 1030.7
20181121021207 46 270 0.0 0.0 0.01 0.02 0.01 97 1030.7
20181121020706 46 270 0.0 0.0 0.01 0.02 0.01 97 1030.8
20181121020207 46 270 0.0 0.0 0.01 0.02 0.01 97 1030.7
20181121015707 46 270 0.0 0.0 0.01 0.02 0.01 97 1030.8
20181121015208 46 270 0.0 0.0 0.01 0.02 0.01 97 1030.9
20181121014707 46 225 0.0 0.0 0.00 0.01 0.00 97 1030.9
20181121014207 46 225 0.0 0.0 0.00 0.01 0.00 97 1031.0
20181121013706 46 0 0.0 0.0 0.00 0.01 0.00 97 1030.9
20181121013207 46 0 0.0 0.0 0.00 0.01 0.00 97 1030.9
20181121012706 46 0 0.0 1.0 0.00 0.01 0.00 97 1031.0
20181121012207 46 0 0.0 1.0 0.00 0.01 0.00 97 1031.1
20181121011707 46 0 0.0 2.0 0.00 0.01 0.00 97 1031.0
20181121011207 46 45 0.0 2.0 0.00 0.01 0.00 97 1031.0
20181121010707 46 45 0.0 1.0 0.00 0.01 0.00 97 1031.0
20181121010207 46 26 0.0 1.0 0.00 0.01 0.00 97 1031.0
20181121005707 46 0 0.0 2.0 0.00 0.01 0.00 97 1031.1
20181121005207 46 0 0.0 2.0 0.00 0.01 0.00 97 1031.1
20181121004707 46 26 0.0 2.0 0.00 0.01 0.00 97 1031.1
20181121004208 46 16 0.0 2.0 0.00 0.01 0.00 97 1031.3
20181121003707 46 0 0.0 2.0 0.00 0.01 0.00 97 1031.4
20181121003207 46 0 1.0 2.0 0.00 0.01 0.00 97 1031.3
20181121002707 46 45 0.0 2.0 0.00 0.01 0.00 97 1031.3
20181121002206 46 31 0.0 2.0 0.00 0.01 0.00 97 1031.4
20181121001705 46 32 0.0 2.0 0.00 0.01 0.00 97 1031.4
20181121001206 46 90 0.0 2.0 0.00 0.01 0.00 97 1031.5
20181121000707 46 315 0.0 1.0 0.00 0.01 0.00 97 1031.4
20181121000207 46 354 0.0 1.0 0.00 0.01 0.00 97 1031.4
20181120235707 46 45 0.0 1.0 0.00 0.01 0.00 97 1031.3
20181120235208 46 45 0.0 1.0 0.00 0.01 0.00 97 1031.3
20181120234707 46 9 0.0 1.0 0.00 0.01 0.00 97 1031.2
20181120234206 46 315 0.0 1.0 0.00 0.01 0.00 97 1031.3
20181120233707 46 45 0.0 1.0 0.00 0.01 0.00 97 1031.3
20181120233205 46 45 0.0 1.0 0.00 0.01 0.00 97 1031.3
20181120232707 46 45 0.0 1.0 0.00 0.01 0.00 97 1031.1
20181120232207 46 270 0.0 1.0 0.00 0.01 0.00 97 1031.2
20181120231707 46 270 0.0 1.0 0.00 0.01 0.00 97 1031.2
20181120231207 46 270 0.0 1.0 0.00 0.01 0.00 97 1031.2
20181120230706 46 270 0.0 1.0 0.00 0.01 0.00 97 1031.0
20181120230207 46 270 0.0 1.0 0.00 0.01 0.00 97 1031.2
20181120225707 46 270 0.0 0.0 0.00 0.01 0.00 97 1031.1
20181120225207 46 270 0.0 0.0 0.00 0.01 0.00 97 1031.0
20181120224707 46 270 0.0 0.0 0.00 0.01 0.00 97 1031.0
20181120224207 46 270 0.0 0.0 0.00 0.01 0.00 97 1030.9
20181120223706 46 270 0.0 0.0 0.00 0.01 0.00 97 1030.9
20181120223206 46 270 0.0 1.0 0.00 0.01 0.00 97 1030.8
20181120222708 46 270 0.0 1.0 0.00 0.01 0.00 97 1030.8
20181120222208 46 316 0.0 1.0 0.00 0.01 0.00 97 1030.8
20181120221707 46 26 0.0 1.0 0.00 0.01 0.00 97 1030.7
20181120221207 46 45 0.0 1.0 0.00 0.01 0.00 97 1030.6
20181120220708 46 0 0.0 0.0 0.00 0.01 0.00 97 1030.8
20181120220208 46 270 0.0 0.0 0.00 0.01 0.00 97 1030.8
20181120215707 46 270 0.0 1.0 0.00 0.01 0.01 97 1030.7
20181120215207 46 270 0.0 1.0 0.00 0.01 0.01 97 1030.7
20181120214707 46 270 0.0 0.0 0.00 0.01 0.01 97 1030.6
20181120214208 46 270 0.0 0.0 0.00 0.01 0.01 97 1030.7
20181120213707 46 270 0.0 0.0 0.00 0.01 0.01 97 1030.5
20181120213208 46 270 0.0 0.0 0.00 0.01 0.01 97 1030.4
20181120212707 46 270 0.0 0.0 0.00 0.01 0.01 97 1030.2
20181120212208 46 270 0.0 1.0 0.00 0.01 0.01 97 1030.1
20181120211708 45 270 0.0 1.0 0.00 0.01 0.01 97 1029.9
20181120211207 45 270 0.0 1.0 0.00 0.01 0.01 97 1029.8
20181120210707 45 270 0.0 1.0 0.00 0.01 0.01 97 1029.6
20181120210207 45 225 0.0 1.0 0.00 0.01 0.01 97 1029.4
20181120205707 45 245 0.0 1.0 0.00 0.01 0.01 97 1029.3
20181120205208 45 270 1.0 1.0 0.00 0.01 0.01 97 1029.1
20181120204706 45 270 0.0 1.0 0.00 0.01 0.01 97 1028.9
20181120204208 45 257 1.0 1.0 0.00 0.01 0.01 97 1028.7
20181120203707 46 270 0.0 2.0 0.00 0.01 0.01 97 1028.6
20181120203207 46 244 0.0 2.0 0.00 0.01 0.01 97 1028.4
20181120202707 46 251 0.0 2.0 0.00 0.01 0.01 97 1028.3